Location: Home
(42.5358°N, 72.7383°W)
Time: 20:58:56
(UTC-05:00)

Altair - Pass Details

Date: 06 December 2021
Orbit: 1501 x 1683 km, 47.2° (Epoch: 26 January)

Event Time Altitude Azimuth Distance (km) Brightness Sun altitude
Rises 17:28:13 0° 274° (W) 4,747 11.4 -12.6°
Reaches altitude 10° 17:31:23 10° 278° (W) 3,739 10.6 -13.1°
Maximum altitude 17:40:45 66° 360° (N) 1,637 7.5 -14.8°
Enters shadow 17:47:25 21° 78° (ENE) 2,894 8.3 -16.0°
